Location: Niedergestelen
(46.3129°N, 7.7822°E)
Time: 20:18:53
(UTC+00:00)

Cosmos 1782 - Pass Details

Date: 01 December 2020
Orbit: 537 x 551 km, 82.5° (Epoch: 27 January)

Event Time Altitude Azimuth Distance (km) Brightness Sun altitude
Rises 16:19:07 0° 153° (SSE) 2,684 6.3 -6.1°
Reaches altitude 10° 16:21:38 10° 137° (SE) 1,801 5.3 -6.5°
Maximum altitude 16:24:37 21° 88° (E) 1,259 4.1 -7.0°
Drops below altitude 10° 16:27:38 10° 39° (NE) 1,819 4.9 -7.5°
Enters shadow 16:29:08 - 28° (NNE) 2,333 5.5 -7.7°
